STARLINK-1801, 46701

Orbit data source: Space-Track

STARLINK-1801, 46701 is a payload satellite owned by SpaceX/Seattle (US) in LEO that was launched on Sun, 18 Oct 2020 UTC via an FALCON 9 launch vehicle from the Air Force Eastern Test Range (AFETR). Payload-class satellites include a variety of spacecraft equipped with specific instruments for various scientific and technological missions. These include communications satellites like Starlink; space stations such as the ISS; scientific satellites like the Hubble; Earth observation satellites from companies like Planet Labs, Umbra, and HawkEye 360; GPS; miniature CubeSats for education and research; and military/defense satellites.

Loading next visibility...
Identifier
46701, 2020-073AH
Orbit
LEO
Country
Flag of USUS
Related business
Manufacturer
SpaceX/Seattle
Mission
Partially operational Commercial Communications
Bus & Motor
STARLINK, Unknown motor
Mass
260 kg wet, ~248 kg dry
Launch date (UTC)
2020-10-18 (5 years ago)
Launch vehicle
FALCON 9
Launch site
Air Force Eastern Test Range (AFETR)
Object type
Payload
Rocket body
Debris
Shape & HBR
Box + 1 Pan, 10.1 m
Radar Cross Section
13.562 m², Large (>1 m²)

Expand to show TLE details & history
Last TLE update: 10 hours ago

TLE from 10 hours ago
0 STARLINK-1801
1 46701U 20073AH  25308.83336806  .00843738  00000-0  20790-1 0  9997
2 46701  53.0623  80.4461 0001025  81.4183  80.3313 15.37591565  5836
Epoch: 2025-11-04T20:00Z
TLE epoch observation values (Epoch: 2025-11-04T20:00:03.000Z)
Latitude
14.49739°
Longitude
-95.02813°
Altitude
453.278 km
Speed
7.643 km/s
True Right ascension
16h 37m 11s
True Declination
14° 24' 38"
Sunlit
Object was in daylight at epoch
Visualization orbit readout
Latitude
Unknown
Longitude
Unknown
Altitude
Unknown
Speed
Unknown
Apparent Right ascension
Unknown
Apparent Declination
Unknown
Sunlit
N/A
Visualization observer readout
Local Sidereal Time
02:08:20
Azimuth
Unknown
Elevation
Unknown
Doppler factor
Unknown
Orbital elements
Apogee altitude
454.207 km
Perigee altitude
452.806 km
Semi-major axis
6,831.644 km
Eccentricity
0.0001
Inclination
53.0623°
RAAN
80.4461°
Arg. of periapsis
81.4183°
True anomaly
80.34288°
Mean anomaly
80.3313°
Eccentric anomaly
80.33709°
Mean motion
3.84375 °/min
Orbital period
93.66 mins
BSTAR
0.02079
Loading maneuver chart data...
Computing Atmospheric mass density...
Loading historical data...
Loading historical data...
Loading historical data...
Loading historical data...
Loading historical data...
Loading historical data...
Loading historical data...

Documentation

Showing up to 5 results
|